Wind_Speed
4 5 1 5 8 10 17 17 14 3 10 15 22 16 9 4 7 14 24 23 19 22 19 16 18 21 21 21 21 19 19 18 18 17 14 11 9 10 10 10 11 12 12 12
5 8 6 7 12 17 18 12 8 8 10 18 12 9 4 4 9 13 10 17 17 16 19 20 19 20 19 21 21 21 19 18 18 18 16 13 13 12 12 13 13 13 13 13
10 10 15 15 15 14 10 9 12 16 18 4 8 12 3 6 8 6 3 11 17 15 16 23 19 21 20 20 20 20 18 18 19 18 18 16 15 14 12 11 12 13 13 14
8 7 11 10 10 10 10 9 12 13 14 5 2 5 8 8 7 7 3 12 17 16 18 21 21 25 23 15 17 20 20 19 19 20 20 19 17 15 14 14 14 15 15 16
3 8 10 11 11 10 12 15 15 13 10 11 4 5 6 4 8 15 13 10 3 17 22 23 23 26 23 20 18 19 21 21 21 21 21 21 20 18 17 16 16 17 17 18
4 11 13 10 10 9 11 12 10 9 7 3 7 6 12 1 7 12 16 16 15 10 3 20 29 27 27 23 20 18 20 22 23 23 24 24 22 21 21 18 18 18 19 19
6 7 8 8 3 2 2 6 3 2 0 4 8 4 6 11 6 7 12 15 18 17 12 7 1 11 24 27 23 23 22 21 23 25 25 25 25 24 23 21 20 21 20 21
5 4 4 3 6 5 4 5 0 2 2 3 6 7 14 13 9 3 2 6 12 18 18 15 11 7 5 9 13 18 21 22 24 25 26 27 26 25 25 25 24 24 22 22
6 2 3 7 9 7 3 4 2 5 6 2 5 6 20 15 10 5 6 5 5 11 17 21 19 13 9 8 9 10 14 19 23 26 27 27 26 27 27 27 27 27 26 25
3 7 5 7 7 7 9 4 3 4 1 3 2 10 6 22 12 8 10 11 10 12 14 16 20 20 15 11 9 10 12 14 19 24 27 27 28 28 29 30 29 29 28 28
8 8 6 7 5 5 4 5 5 5 5 3 1 6 5 29 14 6 7 9 14 17 18 18 22 23 19 16 14 13 13 13 15 20 25 28 27 26 28 30 29 29 30 30
9 6 9 12 13 9 6 4 4 5 3 0 0 6 7 8 4 8 14 17 18 22 23 24 27 28 23 16 14 15 16 16 17 16 17 22 26 26 29 29 30 31 33 33
7 5 6 3 5 4 1 6 9 9 10 8 1 9 7 5 14 23 24 26 27 26 28 30 32 31 24 17 15 15 16 16 18 20 21 21 22 26 27 28 30 33 34 35
15 17 16 10 7 11 13 10 10 6 5 6 10 6 14 25 27 27 28 31 34 35 35 36 36 30 21 16 14 14 16 17 17 17 19 21 23 26 27 29 30 32 34 36
14 20 20 23 26 26 22 20 19 23 19 15 18 18 29 29 27 23 24 27 35 41 45 42 36 27 17 15 14 14 15 17 17 16 17 19 21 24 27 29 30 32 35 37
16 15 16 24 22 23 28 28 32 31 30 30 26 27 33 30 32 23 28 27 29 30 35 40 33 22 19 20 21 19 17 17 18 18 17 19 19 21 24 26 30 32 32 35
24 19 9 9 7 8 5 7 9 20 14 15 13 16 25 27 29 22 26 29 31 30 31 31 31 27 25 25 24 23 22 21 20 21 22 21 22 22 22 23 26 28 31 34
22 15 9 9 11 3 8 6 7 6 7 8 8 11 16 19 21 17 19 24 26 31 33 33 34 35 33 31 31 32 29 30 30 29 28 27 27 26 26 24 24 26 29 31
5 5 7 5 4 8 14 7 3 3 5 6 9 14 19 22 26 24 22 23 27 31 33 35 36 37 37 36 37 37 34 33 33 34 36 36 36 33 31 30 28 26 27 28
2 7 15 5 3 2 5 10 6 6 14 9 22 27 28 31 33 33 34 36 37 39 41 42 43 44 44 43 44 44 42 42 41 40 38 36 38 40 38 35 33 32 31 30
8 8 14 20 12 8 7 17 21 7 12 29 26 24 29 31 33 39 42 42 44 46 49 50 51 51 50 48 47 49 49 48 48 48 46 45 42 40 46 44 40 37 37 36
6 6 6 5 5 8 9 21 19 23 30 27 28 29 34 38 42 43 44 44 44 46 45 44 44 44 42 40 40 41 41 40 41 43 46 48 46 48 47 49 51 48 44 42
17 4 12 13 16 23 26 30 29 20 23 24 32 36 40 42 39 38 40 42 43 44 44 44 46 46 44 44 40 41 40 40 40 41 43 44 44 44 44 48 52 52 54 54
19 16 23 25 27 28 30 28 21 22 28 33 37 39 36 37 39 42 44 45 46 47 48 48 49 49 47 47 48 45 41 41 41 41 41 42 44 44 44 43 45 47 50 54
25 25 22 23 19 19 15 18 23 29 32 32 28 33 39 43 44 46 49 49 50 51 51 52 53 54 52 50 50 50 50 47 46 46 43 42 43 44 45 44 41 42 43 44
24 19 17 21 19 20 24 22 26 27 25 27 36 39 40 46 50 51 51 50 52 53 54 55 56 56 57 56 53 53 53 51 51 50 48 46 44 44 44 43 44 39 40 40
Wind_Direction
330 347 14 313 311 286 292 296 300 335 302 286 299 323 358 341 304 275 242 229 231 244 241 254 262 268 263 254 242 237 235 235 239 245 248 252 262 260 258 251 245 244 242 239
278 301 283 292 285 284 293 289 310 305 289 302 330 16 60 8 339 334 251 226 236 244 237 241 254 271 272 259 245 239 238 237 240 246 251 253 256 257 254 255 252 247 244 241
250 273 294 292 292 295 291 283 295 296 305 307 30 86 7 348 278 316 234 201 222 221 233 229 243 266 277 260 250 247 246 242 241 243 247 251 253 258 267 269 261 255 247 243
283 286 278 287 295 296 301 284 286 293 311 310 204 119 66 9 8 37 70 208 214 222 231 230 233 246 255 252 250 247 248 247 243 243 245 250 255 256 258 257 250 244 243 241
257 272 279 295 288 281 281 289 285 288 307 316 166 173 138 330 42 60 57 62 124 220 221 229 242 250 260 245 238 245 248 248 245 245 246 247 248 254 254 253 252 248 244 241
314 264 285 309 310 291 292 301 287 261 259 287 193 192 180 228 88 87 74 71 68 75 129 227 236 250 263 264 264 259 251 250 250 248 246 247 249 250 253 253 252 248 243 242
309 265 288 315 325 303 345 353 17 53 77 226 170 219 174 173 129 89 80 69 68 71 76 78 182 245 249 263 269 269 267 260 256 253 250 251 251 252 254 254 253 252 245 243
317 289 264 294 313 293 327 318 325 226 192 268 217 175 170 163 141 133 73 50 57 52 47 49 51 30 341 269 263 267 270 266 259 256 254 252 252 253 253 253 252 252 248 242
319 256 243 289 303 286 250 247 241 286 273 255 154 131 158 146 181 193 262 287 342 14 22 26 22 21 14 349 329 286 269 268 262 254 250 251 251 250 251 251 251 249 248 243
253 295 278 284 305 292 250 251 247 234 277 281 200 174 171 159 192 204 252 280 313 334 330 350 4 4 353 344 328 315 309 283 266 260 254 249 248 249 249 247 246 247 245 243
259 251 262 287 306 294 279 240 251 267 262 176 310 31 322 191 201 230 283 313 314 320 322 321 341 349 343 330 318 308 298 293 294 282 262 253 249 248 250 251 250 249 247 243
264 274 269 274 284 256 235 248 253 241 305 169 244 98 116 159 206 318 323 318 315 314 316 315 324 334 333 316 301 295 291 287 280 275 272 271 263 257 254 254 255 253 249 245
266 243 299 246 188 156 282 277 250 252 260 261 341 158 154 315 297 312 316 314 314 314 309 308 316 327 328 310 294 286 284 283 283 279 273 268 263 261 256 253 250 249 249 249
262 251 242 239 257 287 296 283 256 246 242 235 225 189 248 287 302 305 309 310 309 307 305 307 313 321 316 303 291 285 288 287 285 285 284 280 275 272 269 262 256 254 252 249
272 263 259 252 256 263 266 264 255 247 247 263 251 263 296 300 297 301 303 303 297 296 296 300 306 311 299 293 290 285 285 285 286 286 284 282 282 277 271 269 268 262 257 255
272 269 276 280 279 274 269 265 264 264 267 265 259 258 262 271 276 281 284 290 293 295 294 292 296 306 296 290 288 283 282 283 284 284 284 281 280 281 279 276 272 267 267 265
272 281 278 279 257 306 284 313 287 237 247 248 229 232 248 253 264 273 279 277 280 286 292 297 302 303 294 295 290 285 282 283 284 285 283 283 282 280 279 278 276 274 270 266
264 258 257 286 293 253 148 92 88 167 142 152 182 229 256 269 276 287 274 282 282 284 290 294 297 298 297 294 292 289 289 285 282 280 281 279 277 276 275 276 276 276 274 270
289 259 248 257 277 271 239 256 294 328 268 269 293 282 284 287 284 288 280 281 286 290 293 297 299 300 299 299 295 291 287 285 283 282 280 275 274 271 270 271 272 273 274 274
301 257 236 235 263 278 357 300 245 258 249 318 325 321 318 310 310 308 306 304 305 307 308 305 303 303 302 300 299 297 296 294 291 284 280 281 274 270 268 267 267 268 270 272
318 314 239 240 241 242 254 307 282 266 297 322 325 317 314 316 312 310 311 311 310 309 308 307 305 304 303 303 302 300 300 299 295 293 290 286 283 277 270 266 265 265 267 267
314 314 305 278 252 255 277 323 343 311 313 309 303 309 310 307 306 307 306 305 305 304 304 303 302 302 302 300 300 298 296 296 293 291 289 287 286 284 278 270 267 265 267 268
290 268 294 278 262 266 280 301 306 306 299 301 301 302 305 305 306 308 307 305 303 302 300 299 298 297 300 301 298 295 296 297 295 292 290 288 285 281 278 274 269 267 265 265
285 283 271 274 277 282 283 284 290 295 291 296 303 305 306 308 308 305 302 300 300 298 298 296 296 295 292 293 295 296 294 292 291 290 289 288 288 286 282 280 278 275 270 267
288 291 292 282 276 295 281 274 285 287 300 305 309 313 312 307 302 301 299 298 296 295 292 290 290 290 289 288 288 290 290 289 287 287 288 288 287 288 288 283 282 281 279 277
294 298 276 275 287 294 302 302 295 303 305 313 315 309 305 306 305 303 302 300 298 296 294 292 291 289 288 286 285 283 283 283 285 285 285 284 285 286 288 287 285 279 281 278
Height
3143 3144 3143 3144 3144 3144 3143 3141 3139 3139 3139 3137 3135 3133 3130 3128 3126 3123 3123 3126 3129 3131 3133 3134 3136 3137 3138 3140 3143 3147 3151 3155 3157 3159 3161 3163 3165 3166 3167 3168 3169 3171 3172 3173
3143 3142 3142 3142 3143 3142 3140 3139 3138 3137 3137 3136 3132 3131 3129 3127 3123 3119 3116 3121 3125 3129 3131 3131 3132 3134 3135 3137 3139 3142 3147 3150 3153 3156 3158 3160 3162 3163 3164 3164 3166 3168 3169 3170
3140 3141 3140 3141 3140 3138 3137 3136 3136 3136 3133 3133 3132 3131 3130 3127 3124 3121 3118 3120 3121 3124 3124 3126 3128 3131 3132 3133 3135 3139 3142 3146 3149 3152 3153 3155 3157 3159 3161 3163 3164 3165 3167 3168
3139 3138 3138 3138 3138 3137 3135 3135 3134 3134 3133 3132 3131 3135 3130 3127 3124 3121 3119 3119 3120 3121 3123 3123 3125 3126 3128 3131 3132 3134 3137 3141 3144 3146 3148 3151 3153 3155 3157 3159 3159 3161 3163 3165
3138 3136 3136 3136 3135 3135 3134 3132 3132 3131 3131 3130 3127 3130 3130 3128 3125 3123 3121 3120 3120 3120 3121 3122 3121 3123 3124 3127 3128 3130 3132 3135 3138 3141 3143 3146 3148 3150 3152 3154 3155 3157 3159 3161
3135 3135 3134 3134 3133 3132 3132 3130 3128 3128 3129 3129 3125 3127 3129 3127 3126 3124 3123 3122 3120 3120 3120 3120 3120 3119 3120 3123 3125 3127 3128 3130 3132 3135 3138 3140 3142 3145 3146 3149 3151 3152 3154 3156
3134 3133 3132 3132 3131 3131 3130 3128 3127 3130 3130 3127 3125 3126 3125 3127 3126 3125 3124 3124 3122 3120 3120 3120 3119 3117 3116 3117 3121 3122 3124 3126 3127 3129 3131 3134 3137 3139 3140 3142 3144 3146 3149 3151
3133 3131 3131 3132 3131 3130 3129 3129 3128 3129 3131 3126 3125 3124 3125 3127 3125 3124 3125 3125 3124 3122 3120 3119 3119 3117 3116 3114 3115 3117 3118 3120 3121 3123 3125 3127 3130 3132 3134 3136 3137 3139 3142 3145
3132 3131 3130 3130 3130 3131 3129 3129 3129 3127 3125 3125 3123 3123 3127 3128 3123 3124 3124 3124 3123 3122 3120 3119 3118 3117 3116 3114 3113 3112 3112 3112 3113 3115 3117 3119 3122 3124 3126 3128 3129 3131 3134 3137
3132 3130 3128 3128 3128 3128 3127 3128 3128 3127 3126 3125 3120 3122 3124 3125 3121 3123 3122 3123 3122 3121 3120 3118 3117 3116 3114 3113 3112 3110 3109 3107 3106 3106 3108 3112 3114 3116 3118 3119 3121 3122 3125 3128
3129 3129 3128 3127 3127 3126 3126 3125 3126 3126 3125 3124 3125 3125 3120 3121 3121 3122 3121 3121 3119 3118 3117 3116 3115 3114 3112 3110 3109 3108 3106 3105 3104 3102 3101 3102 3106 3109 3110 3111 3113 3115 3115 3118
3127 3126 3124 3125 3124 3124 3124 3124 3124 3124 3124 3122 3121 3129 3126 3124 3120 3118 3117 3116 3115 3115 3114 3112 3111 3110 3109 3108 3106 3104 3102 3100 3099 3098 3097 3098 3098 3099 3101 3103 3105 3106 3107 3107
3124 3124 3122 3120 3122 3121 3120 3121 3121 3121 3121 3121 3121 3125 3123 3120 3116 3113 3111 3111 3110 3110 3109 3107 3107 3107 3105 3104 3102 3100 3098 3096 3094 3093 3092 3092 3092 3091 3092 3094 3095 3095 3097 3098
3119 3118 3119 3118 3118 3120 3118 3118 3119 3118 3119 3118 3119 3121 3119 3113 3111 3109 3108 3106 3104 3101 3100 3100 3102 3103 3101 3099 3098 3096 3094 3092 3090 3088 3087 3086 3085 3085 3085 3085 3086 3086 3087 3088
3116 3112 3114 3112 3112 3112 3113 3112 3113 3114 3114 3115 3116 3117 3111 3106 3104 3105 3103 3101 3097 3094 3093 3094 3096 3098 3097 3095 3093 3091 3089 3087 3086 3084 3081 3080 3078 3077 3076 3076 3077 3077 3077 3078
3111 3108 3108 3104 3106 3105 3103 3105 3104 3105 3106 3106 3110 3113 3105 3101 3098 3100 3098 3096 3090 3087 3087 3087 3091 3093 3091 3089 3088 3086 3084 3082 3080 3078 3076 3074 3072 3070 3069 3068 3067 3067 3068 3068
3106 3105 3105 3100 3100 3100 3101 3097 3095 3094 3095 3097 3100 3099 3095 3094 3091 3094 3090 3090 3086 3083 3079 3080 3084 3085 3084 3082 3080 3079 3077 3075 3073 3071 3069 3068 3066 3064 3062 3060 3059 3058 3058 3057
3099 3102 3102 3100 3100 3100 3099 3097 3094 3093 3092 3091 3092 3092 3090 3087 3086 3087 3085 3083 3083 3079 3077 3076 3075 3074 3075 3074 3073 3071 3069 3067 3066 3063 3061 3060 3058 3057 3055 3053 3051 3049 3048 3048
3096 3098 3099 3098 3098 3097 3095 3094 3093 3091 3090 3088 3087 3085 3084 3082 3079 3081 3082 3079 3077 3074 3072 3070 3069 3066 3065 3064 3062 3059 3060 3057 3056 3053 3051 3050 3049 3047 3046 3045 3043 3041 3039 3038
3095 3097 3097 3096 3097 3094 3092 3090 3090 3089 3086 3084 3082 3080 3078 3075 3073 3072 3072 3072 3070 3067 3064 3062 3059 3056 3054 3053 3050 3047 3045 3045 3044 3041 3039 3038 3037 3036 3035 3034 3033 3031 3029 3028
3094 3094 3093 3091 3092 3091 3088 3084 3085 3089 3088 3083 3080 3076 3074 3072 3071 3066 3064 3062 3060 3057 3053 3050 3047 3044 3042 3039 3037 3035 3032 3031 3029 3027 3025 3025 3025 3023 3021 3021 3021 3019 3018 3016
3092 3093 3091 3090 3088 3087 3084 3084 3088 3086 3081 3078 3074 3071 3068 3066 3062 3059 3056 3052 3048 3045 3041 3038 3034 3032 3029 3028 3025 3021 3019 3017 3014 3012 3010 3009 3009 3008 3007 3006 3006 3007 3005 3004
3092 3091 3091 3091 3086 3083 3082 3081 3082 3079 3075 3072 3069 3066 3062 3057 3053 3050 3046 3042 3039 3036 3033 3029 3025 3021 3019 3016 3014 3010 3008 3005 3002 2999 2997 2995 2993 2993 2992 2989 2989 2990 2991 2990
3086 3086 3083 3082 3080 3079 3077 3075 3073 3071 3068 3065 3063 3059 3054 3049 3045 3040 3036 3032 3029 3025 3021 3016 3012 3010 3008 3005 3001 2999 2996 2993 2989 2985 2983 2981 2979 2978 2977 2976 2974 2973 2973 2973
3081 3079 3076 3072 3072 3071 3071 3069 3067 3064 3062 3059 3056 3051 3046 3040 3035 3030 3024 3020 3015 3010 3007 3003 2999 2994 2992 2991 2988 2985 2982 2979 2976 2973 2971 2969 2966 2964 2962 2961 2961 2960 2959 2958
3072 3071 3069 3066 3067 3066 3064 3063 3060 3058 3055 3053 3048 3042 3038 3029 3021 3015 3010 3005 2999 2994 2990 2985 2981 2977 2974 2972 2973 2970 2967 2965 2962 2959 2957 2955 2952 2950 2948 2946 2945 2948 2945 2943